Presure
156 138 141 143 136 123 118 152 131 143 122 105 147 175 104 124 119 166 144 157 116 122 150 195 128 104 181 186 111 164 120 110 96 96 122 111 137 97 154 143 128 133 133
140 128 143 137 137 173 139 130 124 129 123 141 110 125 143 178 141 141 131 139 103 145 144 136 138 143 158 144 90 119 99 181 128 155 143 168 107 121 149 133 164 118 121
141 135 139 138 133 132 129 133 136 142 139 121 139 110 114 185 159 132 86 103 119 152 114 109 152 174 134 163 150 122 161 140 116 143 88 146 134 119 148 151 122 113 141
127 157 145 140 145 144 146 140 144 134 125 128 187 174 125 118 114 122 138 145 101 116 137 148 183 186 187 132 193 134 136 146 176 108 123 139 114 129 133 146 140 137 172
133 129 133 144 148 143 143 142 142 140 136 141 143 142 142 151 212 143 129 165 145 189 174 127 132 160 206 151 134 135 129 125 159 143 178 140 183 145 191 171 143 145 143
142 146 145 141 134 142 150 146 181 248 268 232 158 217 170 220 199 150 222 156 151 150 132 163 160 141 146 163 153 128 133 133 157 144 158 171 145 145 121 146 142 143 173
148 140 156 145 146 171 177 156 235 144 145 356 238 368 222 217 164 186 152 158 157 143 149 147 148 161 130 142 134 141 149 129 133 121 123 133 177 161 159 150 127 186 127
148 164 140 179 174 176 156 172 153 176 205 447 186 359 499 217 163 161 194 178 192 147 130 171 186 137 137 127 160 140 136 131 196 142 140 189 145 111 171 216 178 122 179
161 150 182 149 151 152 153 143 309 152 141 367 208 320 224 203 195 179 159 152 146 122 168 167 163 125 130 188 140 171 122 150 215 142 147 127 172 145 177 140 177 198 140
274 195 175 165 234 184 147 159 136 215 163 329 214 218 326 304 223 176 170 189 166 132 176 137 185 132 168 132 123 155 126 167 156 182 161 150 176 131 169 180 154 185 184
203 200 197 190 160 153 127 173 300 347 365 331 257 254 320 290 292 280 200 181 198 197 125 178 134 175 158 169 158 135 165 141 153 141 136 153 162 173 154 171 201 145 191
271 284 218 191 183 177 160 266 188 230 168 526 282 302 308 294 287 243 266 151 159 163 167 170 155 161 139 177 131 125 164 126 151 176 171 212 183 170 187 135 187 160 146
173 225 276 264 176 177 175 247 275 290 161 267 264 287 296 287 273 165 259 264 255 192 182 180 179 173 178 189 170 162 168 167 188 179 180 172 187 207 194 191 199 173 182
288 239 261 287 272 173 275 270 266 274 259 258 253 261 278 279 244 222 252 264 235 208 183 188 175 166 188 175 197 195 184 194 177 193 183 177 186 179 158 181 180 175 184
182 280 165 234 258 264 264 264 246 265 255 247 247 242 280 283 217 259 235 250 231 226 163 179 197 210 205 199 200 186 140 136 151 172 205 192 172 176 182 187 189 195 185
190 264 214 268 238 275 260 270 262 256 252 249 177 256 256 253 281 270 264 238 120 211 221 205 219 141 125 206 208 208 204 192 212 200 201 192 196 186 187 191 194 186 170
248 282 265 259 251 253 168 163 274 230 144 144 220 239 213 135 128 129 126 118 116 120 222 243 244 206 108 191 209 165 203 182 182 204 198 166 198 181 178 175 181 181 188
182 180 207 260 244 241 257 253 151 216 211 208 221 216 140 135 153 126 126 126 249 242 210 198 186 169 108 142 138 181 182 153 212 215 216 201 193 188 189 188 200 199 194
181 177 175 178 174 231 163 177 165 150 246 238 139 140 133 134 133 131 204 228 207 135 129 147 125 143 106 162 225 110 119 195 188 190 209 192 190 213 201 207 213 224 237
217 217 190 176 176 174 176 532 471 159 228 253 242 268 232 272 168 175 192 145 136 131 128 171 197 148 127 122 126 131 143 217 259 219 219 192 202 207 236 240 216 245 237
221 218 209 221 238 194 171 174 171 165 154 229 236 158 154 144 145 215 204 138 133 132 132 136 136 163 124 223 113 147 205 233 204 191 197 251 234 269 256 260 263 249 240
109 193 220 219 201 211 203 194 169 211 163 156 162 159 141 148 135 194 135 170 138 136 141 222 161 279 271 179 220 286 281 288 281 274 267 269 266 256 250 255 267 278 269
216 203 202 200 158 210 187 165 215 207 214 175 194 180 166 155 172 154 160 113 258 228 243 170 220 253 233 170 202 246 254 248 242 126 240 266 244 237 237 228 227 199 234
226 221 211 204 222 201 214 205 204 192 205 196 160 153 190 158 196 192 205 141 127 190 144 140 190 188 137 134 123 145 221 211 237 238 236 236 248 227 224 223 242 233 213
237 240 236 236 242 220 226 212 202 200 214 180 207 155 149 127 123 156 180 162 140 151 157 147 128 148 137 197 168 201 199 232 241 243 244 238 238 224 232 269 258 289 346
243 219 233 241 238 237 231 233 244 245 233 208 204 202 217 206 196 197 174 148 131 126 179 157 157 141 162 142 177 223 205 200 240 250 239 237 249 249 259 262 395 424 413
Wind_Speed
35 44 49 48 49 41 32 35 42 39 36 34 35 51 44 44 36 56 49 43 30 48 40 57 48 44 59 56 47 55 51 46 50 49 50 58 55 48 41 55 48 46 43
40 41 49 53 51 46 57 51 46 48 41 36 29 39 43 62 48 48 51 49 42 43 42 47 49 48 46 45 40 51 52 65 55 43 47 58 63 59 42 50 52 58 59
44 46 37 45 49 47 53 49 47 38 47 41 41 41 49 56 57 51 31 44 50 49 41 56 51 57 53 54 52 42 51 48 56 50 42 44 57 65 49 46 60 68 50
37 38 45 50 48 50 48 52 49 52 51 47 61 57 47 44 55 54 50 48 53 50 50 57 66 68 67 60 65 38 50 48 61 59 55 54 57 62 59 65 54 50 60
48 46 50 49 43 47 50 51 49 51 51 52 53 47 49 50 75 52 59 54 56 63 67 58 58 54 73 43 51 53 60 66 63 52 62 61 66 60 66 53 56 56 55
49 48 47 45 47 49 49 49 49 45 46 63 57 79 58 75 70 54 70 61 50 53 54 61 53 58 68 58 66 63 61 62 65 53 44 62 62 53 69 61 61 61 59
45 49 42 48 47 43 44 49 26 47 48 41 60 86 81 79 62 69 57 61 60 49 50 52 47 55 62 50 63 54 56 62 65 72 72 72 61 66 60 62 77 67 76
45 42 51 36 39 41 49 47 48 49 48 19 50 73 49 79 62 62 73 74 76 45 53 69 71 57 55 67 59 71 66 66 76 67 61 81 67 64 71 76 75 68 73
44 50 42 52 52 49 50 48 20 43 41 29 52 69 72 71 71 68 69 59 51 64 70 68 65 71 69 72 58 66 60 64 82 70 65 82 79 74 76 82 78 78 74
23 40 40 48 26 41 49 48 38 33 40 45 57 51 64 76 73 69 77 76 76 60 76 55 69 75 66 74 73 81 81 85 61 83 82 71 80 88 74 78 81 84 84
27 31 32 35 44 51 28 40 13 10 19 44 48 53 54 64 74 71 77 78 84 83 67 81 67 82 82 66 79 70 82 61 71 77 83 85 90 80 79 81 85 85 90
16 11 27 35 35 35 32 3 35 15 26 16 50 48 54 61 61 64 69 62 64 71 69 81 77 68 75 89 81 70 61 83 76 91 81 89 92 83 95 91 93 83 86
33 16 9 11 33 34 34 11 9 5 30 45 43 38 42 52 59 40 70 70 67 81 88 89 89 87 92 92 77 66 88 81 101 93 95 91 99 96 98 95 95 91 100
20 19 11 10 12 26 11 16 22 22 33 44 49 45 43 49 49 52 70 68 84 87 87 88 84 77 99 86 100 102 97 105 96 104 97 95 94 97 86 97 102 98 107
28 17 41 14 20 14 17 23 25 29 41 47 46 48 33 43 48 66 60 75 85 89 72 76 91 98 104 105 108 101 64 66 76 91 108 110 95 102 106 112 112 114 110
21 6 26 5 17 8 11 20 25 29 37 42 36 40 42 45 41 55 65 62 40 86 91 94 99 54 47 104 108 111 109 107 110 116 116 114 120 108 112 116 118 115 99
3 10 4 3 12 8 29 31 13 30 40 39 36 39 39 34 42 41 43 44 45 47 93 85 90 92 46 94 112 67 112 94 101 122 118 96 119 108 103 102 112 111 124
19 17 11 7 18 21 12 20 36 25 24 31 36 44 38 41 44 47 47 50 61 71 65 61 71 72 47 45 52 80 81 82 121 122 121 111 108 109 116 113 125 131 130
22 24 25 19 27 29 35 32 37 40 30 35 44 43 45 44 48 49 54 59 67 44 49 52 49 44 50 55 112 58 68 91 89 95 123 105 109 126 123 131 124 126 119
14 13 17 27 27 30 29 7 10 38 38 40 43 34 49 35 36 45 46 47 50 51 52 56 66 50 53 57 66 72 61 123 94 122 130 105 118 127 124 114 138 108 116
17 19 16 14 6 19 29 26 31 40 44 26 40 35 37 43 45 53 51 51 56 59 60 63 64 73 61 89 50 59 109 99 111 100 105 107 116 93 102 101 101 112 111
27 21 14 19 21 21 20 23 30 11 43 47 43 43 51 48 52 34 54 46 63 63 67 49 54 30 35 53 49 42 48 50 56 62 69 68 70 77 83 84 81 86 96
25 33 33 33 31 28 29 33 23 23 20 38 27 33 45 56 41 60 53 40 20 29 33 49 47 33 47 57 58 50 50 56 63 76 74 68 81 92 97 101 104 87 115
24 23 33 36 29 37 29 34 33 31 32 31 52 52 38 45 35 36 37 61 50 34 64 62 47 48 72 69 68 71 69 65 58 62 65 67 72 90 99 106 97 104 102
27 27 27 26 24 33 33 39 39 40 38 30 40 43 56 42 44 53 47 47 59 53 55 72 61 75 65 53 68 66 67 60 61 65 64 69 77 96 96 92 103 105 92
27 33 31 31 30 30 33 30 27 29 35 44 45 46 42 45 47 48 45 52 52 58 57 56 56 58 58 62 68 65 75 80 68 69 67 75 85 91 95 102 95 84 78
Wind_Direction
225 225 225 223 233 259 274 235 255 248 258 254 256 251 279 261 272 256 262 262 273 272 270 252 268 273 269 268 275 276 273 286 307 309 282 285 283 315 291 295 285 286 281
233 247 229 232 235 243 237 246 264 261 261 255 283 252 248 256 255 258 267 263 268 263 260 265 266 273 271 266 310 278 290 272 275 276 278 279 296 290 283 286 290 290 287
234 241 250 233 236 241 246 244 248 252 253 269 252 269 261 241 246 258 297 273 266 262 275 273 269 266 269 267 275 284 269 269 283 277 303 276 277 288 278 282 282 298 280
255 236 234 233 233 230 236 240 236 245 258 267 247 251 264 263 265 266 254 254 271 270 252 258 258 260 261 275 268 267 266 269 271 285 281 274 285 282 277 287 280 274 283
247 252 249 242 240 239 242 247 245 248 251 253 257 255 253 255 232 254 256 271 265 257 267 261 262 268 258 261 265 258 267 277 276 268 275 274 279 274 287 291 278 278 278
242 241 244 248 254 251 249 250 251 247 244 236 252 239 249 233 242 257 237 264 262 262 256 267 267 262 271 257 265 265 263 268 273 267 284 281 272 295 286 276 274 274 292
239 248 243 245 252 250 252 257 269 258 258 243 240 221 239 238 255 245 259 247 265 259 258 257 244 261 260 257 258 256 264 273 269 278 279 270 290 278 282 291 276 289 272
245 247 256 250 244 244 258 262 259 250 251 209 250 216 216 237 253 259 239 254 244 245 245 266 261 250 254 276 269 263 258 282 271 264 268 279 269 303 295 289 292 297 296
256 254 257 259 255 252 254 268 322 263 267 204 241 214 237 242 240 244 258 263 248 258 263 262 266 261 255 256 252 279 290 263 266 266 284 285 288 271 292 273 294 288 294
245 257 245 243 263 244 256 257 277 271 261 209 241 239 217 216 235 244 248 239 260 245 257 243 246 261 267 271 277 275 275 278 264 286 275 268 290 283 289 287 276 292 294
252 254 250 249 255 253 270 249 310 267 211 212 217 226 212 214 216 221 237 244 240 243 259 255 271 266 270 279 277 272 277 278 286 287 282 279 288 289 273 278 283 271 290
259 231 262 253 246 253 262 358 269 284 277 159 201 203 209 212 211 224 220 255 261 262 266 262 261 267 263 272 268 281 279 280 270 287 280 273 288 287 290 276 289 281 286
248 278 295 222 250 256 255 212 99 106 272 195 205 206 204 207 209 253 220 217 217 248 256 256 260 268 268 259 278 278 282 279 280 287 278 280 286 277 284 286 284 287 291
236 261 305 196 201 264 175 172 180 178 189 199 209 213 209 205 213 223 217 218 219 233 252 250 259 270 259 271 258 262 272 267 283 275 283 278 280 287 278 280 288 287 288
264 276 250 261 218 231 218 202 220 203 203 212 213 218 212 215 228 214 226 218 222 229 261 256 247 240 248 255 256 272 278 282 280 278 267 274 282 283 285 285 284 283 285
258 119 268 38 188 249 211 226 225 223 217 225 246 216 214 223 226 222 223 228 271 236 234 243 236 263 278 252 254 256 259 270 261 270 271 277 276 282 282 283 283 285 286
166 279 309 181 179 163 254 256 231 240 252 254 239 227 231 249 254 252 258 270 276 276 235 235 236 251 292 266 254 279 262 271 272 266 271 278 273 279 281 283 280 281 283
242 244 256 210 214 204 238 198 249 216 229 248 244 235 248 252 252 263 264 267 234 231 248 249 249 255 291 281 285 265 266 276 263 265 265 272 275 278 278 279 278 278 278
250 247 252 247 250 268 253 247 249 252 210 211 254 255 256 255 260 265 243 237 238 272 276 268 283 281 287 270 252 292 295 274 282 282 269 275 277 271 276 276 276 277 275
324 325 243 253 242 242 242 260 256 250 232 225 223 248 222 258 240 250 266 263 267 273 277 277 258 272 286 290 293 289 290 261 264 268 269 281 278 277 272 273 276 274 273
313 316 299 318 348 259 249 249 245 245 253 245 248 242 246 260 262 250 254 267 272 276 282 285 284 270 284 266 294 294 270 272 275 282 281 272 274 275 275 273 273 270 270
287 298 281 297 294 296 279 283 273 268 248 259 247 250 258 259 268 261 277 260 276 282 281 263 283 266 269 287 289 293 287 283 282 282 280 281 281 280 278 278 277 276 273
271 289 292 293 283 289 286 256 291 285 286 249 256 258 249 261 274 266 268 285 247 268 257 280 265 273 266 287 283 283 284 280 279 294 280 281 280 277 277 277 275 282 277
273 266 271 276 267 286 276 283 280 283 281 277 251 255 272 263 272 278 275 272 286 278 269 274 277 289 279 279 290 288 280 298 289 296 290 291 292 276 273 276 274 274 293
273 274 267 262 263 267 262 267 274 278 270 283 259 270 256 279 284 288 268 276 265 293 291 264 288 271 286 287 304 291 303 293 293 299 300 293 290 280 292 296 280 284 280
265 266 269 272 267 265 255 257 266 269 265 269 273 277 264 273 283 282 293 286 273 285 285 287 287 292 298 303 304 293 291 299 302 308 302 299 305 299 301 293 294 284 281